FW8640 Weather Reports


time (UTC)temp
F
wind
direction
speed
knots
gust
knots
rain 1hr
in
rain 24hr
in
rain mn
in
humidity
%
barometer
mb
20240418172016 61 0 7.8 13.9 0.00 0.21 0.00 45 1009.3
20240418171016 61 0 9.6 17.4 0.00 0.21 0.00 46 1009.1
20240418170018 61 0 8.7 13.0 0.00 0.21 0.00 46 1009.1
20240418165016 62 0 8.7 15.6 0.00 0.21 0.00 45 1008.8
20240418164020 62 0 7.0 13.0 0.00 0.21 0.00 44 1008.8
20240418163018 63 0 9.6 15.6 0.00 0.21 0.00 42 1008.8
20240418162020 64 0 5.2 13.0 0.00 0.21 0.00 42 1008.7
20240418161018 64 0 7.0 13.0 0.00 0.21 0.00 42 1008.6
20240418160019 64 0 7.0 14.8 0.00 0.21 0.00 42 1008.8
20240418155021 64 0 7.8 13.9 0.00 0.21 0.00 42 1008.7
20240418154019 65 0 7.8 12.2 0.00 0.21 0.00 39 1008.5
20240418153019 64 0 7.8 13.0 0.00 0.21 0.00 41 1008.3
20240418152019 65 0 11.3 19.1 0.00 0.21 0.00 40 1008.3
20240418151019 66 0 7.8 13.0 0.00 0.21 0.00 40 1008.1
20240418150019 67 0 6.1 13.0 0.00 0.21 0.00 39 1007.9
20240418145020 67 0 2.6 7.0 0.00 0.21 0.00 41 1007.7
20240418144019 66 0 4.3 9.6 0.00 0.21 0.00 43 1007.6
20240418143020 67 0 5.2 11.3 0.00 0.21 0.00 44 1007.6
20240418142019 68 0 7.0 10.4 0.00 0.21 0.00 38 1007.6
20240418141019 68 0 4.3 10.4 0.00 0.21 0.00 36 1007.3
20240418140019 70 0 5.2 10.4 0.00 0.21 0.00 36 1007.2
20240418135019 71 0 4.3 10.4 0.00 0.21 0.00 35 1007.2
20240418134019 70 0 4.3 11.3 0.00 0.21 0.00 35 1007.0
20240418133018 70 0 5.2 13.0 0.00 0.21 0.00 37 1006.9
20240418132019 70 0 7.0 12.2 0.00 0.21 0.00 35 1006.8
20240418131018 69 0 7.0 11.3 0.00 0.21 0.00 37 1006.8
20240418130020 70 0 7.0 12.2 0.00 0.21 0.00 37 1006.8
20240418125019 70 0 4.3 11.3 0.00 0.21 0.00 36 1006.8
20240418124103 69 0 6.1 10.4 0.00 0.21 0.00 37 1006.7
20240418123042 71 0 3.5 9.6 0.00 0.21 0.00 36 1006.7
20240418122018 70 0 2.6 9.6 0.00 0.21 0.00 37 1006.9
20240418121020 68 0 6.1 11.3 0.00 0.21 0.00 38 1006.9
20240418120020 68 0 3.5 8.7 0.00 0.21 0.00 40 1006.9
20240418115019 68 0 6.1 11.3 0.00 0.21 0.00 41 1006.8
20240418114018 68 0 3.5 9.6 0.00 0.21 0.00 40 1006.8
20240418113018 69 0 3.5 11.3 0.00 0.21 0.00 41 1006.8
20240418112018 68 0 4.3 9.6 0.00 0.21 0.00 42 1006.8
20240418111018 67 0 4.3 10.4 0.00 0.21 0.00 42 1006.7
20240418110018 67 0 7.8 13.9 0.00 0.21 0.00 42 1006.8
20240418105020 68 0 4.3 10.4 0.00 0.21 0.00 40 1006.7
20240418104041 68 0 5.2 12.2 0.00 0.21 0.00 40 1006.6
20240418103020 68 0 5.2 10.4 0.00 0.21 0.00 40 1006.7
20240418102020 68 0 7.0 12.2 0.00 0.21 0.00 41 1006.5
20240418101020 67 0 6.1 11.3 0.00 0.21 0.00 42 1006.5
20240418100042 67 0 7.0 12.2 0.00 0.21 0.00 42 1006.6
20240418095018 67 0 7.0 11.3 0.00 0.21 0.00 42 1006.6
20240418094019 67 0 4.3 13.0 0.00 0.21 0.00 44 1006.6
20240418093018 66 0 3.5 13.0 0.00 0.21 0.00 45 1006.8
20240418092020 65 0 7.0 12.2 0.00 0.21 0.00 46 1006.6
20240418091041 64 0 6.1 14.8 0.00 0.21 0.00 46 1006.7
20240418090018 64 0 9.6 16.5 0.00 0.21 0.00 45 1006.6
20240418085017 64 0 7.8 15.6 0.00 0.21 0.00 46 1006.7
20240418084017 64 0 8.7 17.4 0.00 0.21 0.00 47 1006.6
20240418083040 63 0 9.6 15.6 0.00 0.21 0.00 47 1006.5
20240418082017 63 0 8.7 14.8 0.00 0.21 0.00 47 1006.4
20240418081017 63 0 8.7 15.6 0.00 0.21 0.00 49 1006.3
20240418080019 62 0 9.6 14.8 0.00 0.21 0.00 50 1006.2
20240418075018 63 0 7.8 14.8 0.00 0.21 0.00 50 1006.1
20240418074019 62 0 9.6 13.9 0.00 0.21 0.00 50 1005.9
20240418073017 61 0 7.8 13.9 0.00 0.21 0.00 52 1005.7
20240418072017 62 0 7.8 12.2 0.00 0.21 0.00 52 1005.7
20240418071017 61 0 9.6 15.6 0.00 0.21 0.00 52 1005.4
20240418070017 61 0 7.0 14.8 0.00 0.21 0.00 52 1005.3
20240418065017 61 0 7.8 13.9 0.00 0.21 0.00 53 1005.2
20240418064017 60 0 7.8 13.9 0.00 0.21 0.00 53 1005.0
20240418063017 60 0 7.8 13.9 0.00 0.21 0.00 54 1004.9
20240418062039 60 0 9.6 13.9 0.00 0.21 0.00 53 1004.8
20240418061017 60 0 5.2 11.3 0.00 0.21 0.00 54 1004.7
20240418060017 60 0 8.7 14.8 0.00 0.21 0.00 54 1004.6
20240418055017 60 0 5.2 13.0 0.00 0.21 0.00 54 1004.5
20240418054019 60 0 5.2 9.6 0.00 0.21 0.00 54 1004.5
20240418053017 59 0 7.8 13.9 0.00 0.21 0.00 55 1004.4
20240418052017 59 0 7.8 12.2 0.00 0.21 0.00 56 1004.3
20240418051017 59 0 5.2 10.4 0.00 0.21 0.00 58 1004.1
20240418050019 58 0 5.2 9.6 0.00 0.21 0.00 61 1003.8
20240418045017 58 0 5.2 11.3 0.00 0.21 0.00 61 1003.5
20240418044038 58 0 4.3 10.4 0.00 0.21 0.00 61 1003.6
20240418043017 58 0 3.5 9.6 0.00 0.21 0.00 61 1003.5
20240418042017 58 0 5.2 9.6 0.00 0.21 0.00 61 1003.3
20240418041018 59 0 2.6 5.2 0.00 0.21 0.00 62 1003.2
20240418040020 58 0 4.3 8.7 0.00 0.21 0.00 61 1003.1
20240418035038 58 0 5.2 10.4 0.00 0.21 0.00 62 1002.9
20240418034023 59 0 2.6 8.7 0.00 0.21 0.00 62 1002.6
20240418033017 59 0 3.5 8.7 0.00 0.21 0.00 61 1002.4
20240418032017 60 0 3.5 7.8 0.00 0.21 0.00 60 1002.5
20240418031018 59 0 5.2 7.8 0.00 0.21 0.00 62 1002.2
20240418030018 59 0 3.5 7.8 0.00 0.21 0.00 63 1002.1
20240418025018 59 0 3.5 7.8 0.00 0.21 0.00 62 1002.2
20240418024017 59 0 3.5 7.0 0.00 0.21 0.00 63 1002.1
20240418023017 59 0 5.2 9.6 0.00 0.21 0.00 61 1001.9
20240418022017 60 0 2.6 5.2 0.00 0.21 0.00 62 1002.1
20240418021056 60 0 4.3 9.6 0.00 0.21 0.00 64 1001.9
20240418020016 60 0 5.2 10.4 0.00 0.21 0.00 63 1001.9
20240418015018 59 0 3.5 8.7 0.00 0.21 0.00 65 1001.6
20240418014016 60 0 6.1 9.6 0.00 0.21 0.00 65 1001.6
20240418013018 59 0 6.1 11.3 0.00 0.21 0.00 66 1001.5
20240418012018 59 0 6.1 10.4 0.00 0.21 0.00 66 1001.2
20240418011020 60 0 7.8 12.2 0.00 0.21 0.00 67 1001.3
20240418010018 60 0 7.0 13.0 0.00 0.21 0.00 67 1001.3
20240418005018 61 0 7.0 10.4 0.00 0.21 0.00 66 1001.3
20240418004018 61 0 5.2 8.7 0.00 0.21 0.00 67 1001.4
20240418003018 61 0 6.1 10.4 0.00 0.21 0.00 68 1001.2
20240418002020 61 0 3.5 7.0 0.00 0.21 0.00 69 1001.2
20240418001018 61 0 4.3 8.7 0.00 0.21 0.00 69 1001.2
20240418000018 62 0 4.3 8.7 0.00 0.21 0.00 68 1001.1
20240417235018 62 0 5.2 8.7 0.00 0.21 0.00 69 1000.9
20240417234020 62 0 6.1 11.3 0.00 0.21 0.00 68 1000.9
20240417233018 62 0 4.3 8.7 0.00 0.21 0.00 68 1001.0
20240417232041 63 0 3.5 7.0 0.00 0.21 0.00 67 1001.1
20240417231041 63 0 5.2 8.7 0.00 0.21 0.00 67 1000.9
20240417230018 63 0 5.2 8.7 0.00 0.21 0.00 67 1000.9
20240417225018 62 0 6.1 10.4 0.00 0.21 0.00 67 1000.8
20240417224020 63 0 6.1 9.6 0.00 0.21 0.00 67 1000.7
20240417223018 63 0 5.2 9.6 0.00 0.21 0.00 67 1000.7
20240417222018 64 0 4.3 8.7 0.00 0.21 0.00 67 1000.9
20240417221040 63 0 3.5 7.0 0.00 0.21 0.00 67 1000.8
20240417220018 63 0 4.3 8.7 0.00 0.21 0.00 68 1000.3
20240417215018 63 0 5.2 8.7 0.00 0.21 0.00 69 1000.2
20240417214018 63 0 5.2 9.6 0.00 0.21 0.00 70 1000.2
20240417213018 62 0 6.1 10.4 0.00 0.21 0.00 71 1000.1
20240417212018 63 0 6.1 11.3 0.00 0.21 0.00 71 1000.0
20240417211019 63 0 5.2 12.2 0.00 0.21 0.00 72 999.9
20240417210018 63 0 5.2 10.4 0.00 0.21 0.21 73 999.8
20240417205019 63 0 4.3 10.4 0.00 0.21 0.21 75 999.7
20240417204017 62 0 5.2 10.4 0.00 0.21 0.21 76 1000.0
20240417203017 62 0 4.3 9.6 0.01 0.21 0.21 77 1000.0
20240417202017 62 0 6.1 10.4 0.04 0.21 0.21 78 1000.0
20240417201017 62 0 4.3 10.4 0.20 0.21 0.21 78 1000.0
20240417200017 62 0 5.2 12.2 0.21 0.21 0.21 79 1000.1
20240417195017 62 0 7.0 13.9 0.21 0.21 0.21 79 1000.2
20240417194038 62 0 12.2 17.4 0.21 0.21 0.21 79 1000.4
20240417193019 63 0 10.4 14.8 0.20 0.20 0.20 79 1000.3
20240417192018 65 0 9.6 17.4 0.17 0.17 0.17 75 1000.1
20240417191039 69 0 4.3 9.6 0.02 0.02 0.02 71 1000.3
20240417190017 70 0 2.6 7.8 0.00 0.00 0.00 65 999.5
20240417185038 71 0 3.5 8.7 0.00 0.00 0.00 61 999.1
20240417184019 71 0 1.7 3.5 0.00 0.00 0.00 56 998.9
20240417183017 72 0 1.7 3.5 0.00 0.00 0.00 56 998.7
20240417182017 72 0 0.9 1.7 0.00 0.00 0.00 56 998.7
20240417181018 72 0 0.9 3.5 0.00 0.00 0.00 54 998.8
20240417180017 72 0 2.6 7.0 0.00 0.00 0.00 54 998.5
20240417175017 72 0 4.3 8.7 0.00 0.00 0.00 53 998.4
20240417174018 73 0 1.7 5.2 0.00 0.00 0.00 50 998.2
20240417173018 73 0.0 1.7 0.00 0.00 0.00 50 998.0